Time,TemperatureF,DewpointF,PressureIn,WindDirection,WindDirectionDegrees,WindSpeedMPH,WindSpeedGustMPH,Humidity,HourlyPrecipIn,Conditions,Clouds,dailyrainin,SoftwareType,DateUTC
2013-07-23 00:04:00,75.7,71.9,28.76,West,270,0.0,0.0,88,0.00,,---,0.00,VWS V14.00,2013-07-23 04:04:00,
2013-07-23 00:07:00,75.7,71.9,28.76,WSW,248,0.0,0.0,88,0.00,,---,0.00,VWS V14.00,2013-07-23 04:07:00,
2013-07-23 00:10:00,75.7,72.3,28.76,West,270,0.0,0.0,89,0.00,,---,0.00,VWS V14.00,2013-07-23 04:10:00,
2013-07-23 00:13:00,75.7,72.3,28.76,WSW,248,0.0,2.5,89,0.00,,---,0.00,VWS V14.00,2013-07-23 04:13:00,
2013-07-23 00:19:00,75.7,72.3,28.76,WNW,292,0.0,2.5,89,0.00,,---,0.00,VWS V14.00,2013-07-23 04:19:00,
2013-07-23 00:25:00,75.7,72.3,28.76,West,270,0.0,2.5,89,0.00,,---,0.00,VWS V14.00,2013-07-23 04:25:00,
2013-07-23 00:31:00,75.7,72.3,28.76,North,0,0.0,2.5,89,0.00,,---,0.00,VWS V14.00,2013-07-23 04:31:00,
2013-07-23 00:37:00,75.6,71.8,28.76,NNW,338,0.0,2.5,88,0.00,,---,0.00,VWS V14.00,2013-07-23 04:37:00,
2013-07-23 00:43:00,75.4,71.9,28.76,West,270,0.0,2.5,89,0.00,,---,0.00,VWS V14.00,2013-07-23 04:43:00,
2013-07-23 00:49:00,75.4,71.9,28.76,West,270,0.0,2.5,89,0.00,,---,0.00,VWS V14.00,2013-07-23 04:49:00,
2013-07-23 00:55:00,75.4,71.9,28.76,West,270,0.0,2.5,89,0.00,,---,0.00,VWS V14.00,2013-07-23 04:55:00,
2013-07-23 01:01:00,75.4,71.9,28.76,NNW,338,0.0,0.0,89,0.00,,---,0.00,VWS V14.00,2013-07-23 05:01:00,
2013-07-23 01:07:00,75.2,71.7,28.76,West,270,0.0,0.0,89,0.00,,---,0.00,VWS V14.00,2013-07-23 05:07:00,
2013-07-23 01:13:00,75.2,71.7,28.73,West,270,0.0,0.0,89,0.00,,---,0.00,VWS V14.00,2013-07-23 05:13:00,
2013-07-23 01:19:00,75.2,71.7,28.73,NE,45,0.0,0.0,89,0.00,,---,0.00,VWS V14.00,2013-07-23 05:19:00,
2013-07-23 01:25:00,75.2,71.7,28.73,NNW,338,0.0,0.0,89,0.00,,---,0.00,VWS V14.00,2013-07-23 05:25:00,
2013-07-23 01:31:00,75.0,71.6,28.73,NNW,338,0.0,0.0,89,0.00,,---,0.00,VWS V14.00,2013-07-23 05:31:00,
2013-07-23 01:37:00,74.8,71.4,28.73,NW,315,0.0,0.0,89,0.00,,---,0.00,VWS V14.00,2013-07-23 05:37:00,
2013-07-23 01:43:00,74.8,71.4,28.73,NW,315,0.0,0.0,89,0.00,,---,0.00,VWS V14.00,2013-07-23 05:43:00,
2013-07-23 01:49:00,74.7,71.5,28.73,NW,315,0.0,0.0,90,0.00,,---,0.00,VWS V14.00,2013-07-23 05:49:00,
2013-07-23 01:55:00,74.7,71.5,28.73,WNW,292,0.0,0.0,90,0.00,,---,0.00,VWS V14.00,2013-07-23 05:55:00,
2013-07-23 02:01:00,74.5,71.0,28.73,WNW,292,0.0,0.0,89,0.00,,---,0.00,VWS V14.00,2013-07-23 06:01:00,
2013-07-23 02:07:00,74.3,71.2,28.73,WNW,292,0.0,0.0,90,0.00,,---,0.00,VWS V14.00,2013-07-23 06:07:00,
2013-07-23 02:13:00,74.1,70.7,28.73,WNW,292,0.0,0.0,89,0.00,,---,0.00,VWS V14.00,2013-07-23 06:13:00,
2013-07-23 02:19:00,74.3,71.2,28.73,WNW,292,0.0,0.0,90,0.00,,---,0.00,VWS V14.00,2013-07-23 06:19:00,
2013-07-23 02:25:00,74.1,70.7,28.73,WNW,292,0.0,0.0,89,0.00,,---,0.00,VWS V14.00,2013-07-23 06:25:00,
2013-07-23 02:31:00,73.9,70.8,28.73,WNW,292,0.0,0.0,90,0.00,,---,0.00,VWS V14.00,2013-07-23 06:31:00,
2013-07-23 02:37:00,73.9,70.8,28.73,WNW,292,0.0,0.0,90,0.00,,---,0.00,VWS V14.00,2013-07-23 06:37:00,
2013-07-23 02:43:00,73.8,70.7,28.73,WNW,292,0.0,0.0,90,0.00,,---,0.00,VWS V14.00,2013-07-23 06:43:00,
2013-07-23 02:49:00,73.8,70.3,28.73,WNW,292,0.0,0.0,89,0.00,,---,0.00,VWS V14.00,2013-07-23 06:49:00,
2013-07-23 02:55:00,73.6,70.1,28.73,WNW,292,0.0,0.0,89,0.00,,---,0.00,VWS V14.00,2013-07-23 06:55:00,
2013-07-23 03:01:00,73.4,70.0,28.73,WNW,292,0.0,0.0,89,0.00,,---,0.00,VWS V14.00,2013-07-23 07:01:00,
2013-07-23 03:07:00,73.4,69.6,28.73,WNW,292,0.0,0.0,88,0.00,,---,0.00,VWS V14.00,2013-07-23 07:07:00,
2013-07-23 03:13:00,73.4,69.6,28.73,WNW,292,0.0,0.0,88,0.00,,---,0.00,VWS V14.00,2013-07-23 07:13:00,
2013-07-23 03:19:00,73.2,69.5,28.73,WNW,292,0.0,0.0,88,0.00,,---,0.00,VWS V14.00,2013-07-23 07:19:00,
2013-07-23 03:25:00,73.0,69.3,28.73,WNW,292,0.0,0.0,88,0.00,,---,0.00,VWS V14.00,2013-07-23 07:25:00,
2013-07-23 03:31:00,72.9,69.1,28.73,WNW,292,0.0,0.0,88,0.00,,---,0.00,VWS V14.00,2013-07-23 07:31:00,
2013-07-23 03:37:00,72.7,68.9,28.73,West,270,0.0,0.0,88,0.00,,---,0.00,VWS V14.00,2013-07-23 07:37:00,
2013-07-23 03:43:00,72.5,68.8,28.73,West,270,0.0,0.0,88,0.00,,---,0.00,VWS V14.00,2013-07-23 07:43:00,
2013-07-23 03:49:00,72.5,68.8,28.73,West,270,0.0,0.0,88,0.00,,---,0.00,VWS V14.00,2013-07-23 07:49:00,
2013-07-23 03:55:00,72.5,68.8,28.73,West,270,0.0,0.0,88,0.00,,---,0.00,VWS V14.00,2013-07-23 07:55:00,
2013-07-23 04:02:00,72.3,68.6,28.73,West,270,0.0,0.0,88,0.00,,---,0.00,VWS V14.00,2013-07-23 08:02:00,
2013-07-23 04:08:00,72.3,68.6,28.73,West,270,0.0,0.0,88,0.00,,---,0.00,VWS V14.00,2013-07-23 08:08:00,
2013-07-23 04:14:00,72.1,68.4,28.73,West,270,0.0,0.0,88,0.00,,---,0.00,VWS V14.00,2013-07-23 08:14:00,
2013-07-23 04:20:00,72.0,68.2,28.76,West,270,0.0,0.0,88,0.00,,---,0.00,VWS V14.00,2013-07-23 08:20:00,
2013-07-23 04:26:00,71.8,68.0,28.76,West,270,0.0,0.0,88,0.00,,---,0.00,VWS V14.00,2013-07-23 08:26:00,
2013-07-23 04:32:00,71.8,68.0,28.76,West,270,1.3,1.3,88,0.00,,---,0.00,VWS V14.00,2013-07-23 08:32:00,
2013-07-23 04:38:00,71.8,68.0,28.76,West,270,0.0,1.3,88,0.00,,---,0.00,VWS V14.00,2013-07-23 08:38:00,
2013-07-23 04:44:00,71.6,67.9,28.76,West,270,0.0,1.3,88,0.00,,---,0.00,VWS V14.00,2013-07-23 08:44:00,
2013-07-23 04:50:00,71.4,67.7,28.76,West,270,0.0,1.3,88,0.00,,---,0.00,VWS V14.00,2013-07-23 08:50:00,
2013-07-23 04:56:00,71.6,67.9,28.76,West,270,0.0,1.3,88,0.00,,---,0.00,VWS V14.00,2013-07-23 08:56:00,
2013-07-23 05:02:00,71.2,67.8,28.76,West,270,0.0,0.0,89,0.00,,---,0.00,VWS V14.00,2013-07-23 09:02:00,
2013-07-23 05:08:00,71.1,67.7,28.76,West,270,0.0,0.0,89,0.00,,---,0.00,VWS V14.00,2013-07-23 09:08:00,
2013-07-23 05:14:00,70.7,67.3,28.76,West,270,0.0,0.0,89,0.00,,---,0.00,VWS V14.00,2013-07-23 09:14:00,
2013-07-23 05:20:00,70.7,67.3,28.76,WNW,292,0.0,0.0,89,0.00,,---,0.00,VWS V14.00,2013-07-23 09:20:00,
2013-07-23 05:26:00,70.5,67.4,28.76,West,270,0.0,0.0,90,0.00,,---,0.00,VWS V14.00,2013-07-23 09:26:00,
2013-07-23 05:32:00,70.5,67.4,28.76,West,270,0.0,0.0,90,0.00,,---,0.00,VWS V14.00,2013-07-23 09:32:00,
2013-07-23 05:38:00,70.5,67.4,28.76,West,270,0.0,0.0,90,0.00,,---,0.00,VWS V14.00,2013-07-23 09:38:00,
2013-07-23 05:44:00,70.3,67.3,28.76,West,270,0.0,0.0,90,0.00,,---,0.00,VWS V14.00,2013-07-23 09:44:00,
2013-07-23 05:50:00,70.3,67.3,28.76,West,270,0.0,0.0,90,0.00,,---,0.00,VWS V14.00,2013-07-23 09:50:00,
2013-07-23 05:56:00,70.3,67.3,28.76,West,270,0.0,0.0,90,0.00,,---,0.00,VWS V14.00,2013-07-23 09:56:00,
2013-07-23 06:02:00,70.3,67.3,28.76,West,270,0.0,0.0,90,0.00,,---,0.00,VWS V14.00,2013-07-23 10:02:00,
2013-07-23 06:08:00,70.2,67.1,28.76,West,270,0.0,0.0,90,0.00,,---,0.00,VWS V14.00,2013-07-23 10:08:00,
2013-07-23 06:14:00,70.2,67.1,28.76,West,270,0.0,0.0,90,0.00,,---,0.00,VWS V14.00,2013-07-23 10:14:00,
2013-07-23 06:20:00,70.2,67.1,28.76,West,270,0.0,0.0,90,0.00,,---,0.00,VWS V14.00,2013-07-23 10:20:00,
2013-07-23 06:26:00,70.2,67.1,28.76,West,270,0.0,0.0,90,0.00,,---,0.00,VWS V14.00,2013-07-23 10:26:00,
2013-07-23 06:32:00,70.0,66.9,28.76,West,270,0.0,0.0,90,0.00,,---,0.00,VWS V14.00,2013-07-23 10:32:00,
2013-07-23 06:38:00,70.0,66.9,28.76,West,270,0.0,0.0,90,0.00,,---,0.00,VWS V14.00,2013-07-23 10:38:00,
2013-07-23 06:44:00,70.0,66.9,28.76,West,270,0.0,0.0,90,0.00,,---,0.00,VWS V14.00,2013-07-23 10:44:00,
2013-07-23 06:50:00,70.2,67.1,28.76,West,270,0.0,0.0,90,0.00,,---,0.00,VWS V14.00,2013-07-23 10:50:00,
2013-07-23 06:56:00,70.2,67.1,28.76,West,270,0.0,0.0,90,0.00,,---,0.00,VWS V14.00,2013-07-23 10:56:00,
2013-07-23 07:02:00,70.2,67.1,28.76,West,270,0.0,0.0,90,0.00,,---,0.00,VWS V14.00,2013-07-23 11:02:00,
2013-07-23 07:08:00,70.0,66.9,28.76,West,270,0.0,0.0,90,0.00,,---,0.00,VWS V14.00,2013-07-23 11:08:00,
2013-07-23 07:14:00,70.0,67.2,28.76,WSW,248,0.0,0.0,91,0.00,,---,0.00,VWS V14.00,2013-07-23 11:14:00,
2013-07-23 07:20:00,70.0,67.2,28.76,WSW,248,0.0,0.0,91,0.00,,---,0.00,VWS V14.00,2013-07-23 11:20:00,
2013-07-23 07:26:00,70.2,67.7,28.76,WSW,248,0.0,0.0,92,0.00,,---,0.00,VWS V14.00,2013-07-23 11:26:00,
2013-07-23 07:32:00,70.2,67.7,28.76,WSW,248,0.0,0.0,92,0.00,,---,0.00,VWS V14.00,2013-07-23 11:32:00,
2013-07-23 07:38:00,70.3,67.9,28.76,West,270,0.0,0.0,92,0.00,,---,0.00,VWS V14.00,2013-07-23 11:38:00,
2013-07-23 07:44:00,70.3,68.2,28.76,West,270,0.0,0.0,93,0.00,,---,0.00,VWS V14.00,2013-07-23 11:44:00,
2013-07-23 07:50:00,70.7,68.6,28.76,West,270,0.0,0.0,93,0.00,,---,0.00,VWS V14.00,2013-07-23 11:50:00,
2013-07-23 07:56:00,70.7,68.6,28.76,West,270,0.0,0.0,93,0.00,,---,0.00,VWS V14.00,2013-07-23 11:56:00,
2013-07-23 08:02:00,71.1,68.9,28.76,West,270,0.0,0.0,93,0.00,,---,0.00,VWS V14.00,2013-07-23 12:02:00,
2013-07-23 08:08:00,71.4,69.3,28.76,West,270,0.0,0.0,93,0.00,,---,0.00,VWS V14.00,2013-07-23 12:08:00,
2013-07-23 08:14:00,72.1,69.7,28.76,South,180,0.0,0.0,92,0.00,,---,0.00,VWS V14.00,2013-07-23 12:14:00,
2013-07-23 08:20:00,72.9,70.1,28.76,WSW,248,0.0,0.0,91,0.00,,---,0.00,VWS V14.00,2013-07-23 12:20:00,
2013-07-23 08:26:00,73.8,70.7,28.76,WNW,292,0.0,0.0,90,0.00,,---,0.00,VWS V14.00,2013-07-23 12:26:00,
2013-07-23 08:32:00,74.3,70.5,28.76,West,270,0.0,2.0,88,0.00,,---,0.00,VWS V14.00,2013-07-23 12:32:00,
2013-07-23 08:38:00,75.0,70.9,28.76,West,270,0.0,2.0,87,0.00,,---,0.00,VWS V14.00,2013-07-23 12:38:00,
2013-07-23 08:44:00,75.9,70.7,28.76,SW,225,0.0,2.0,84,0.00,,---,0.00,VWS V14.00,2013-07-23 12:44:00,
2013-07-23 08:50:00,76.3,71.1,28.76,East,90,0.0,2.0,84,0.00,,---,0.00,VWS V14.00,2013-07-23 12:50:00,
2013-07-23 08:56:00,77.0,71.4,28.76,NNW,338,0.0,2.0,83,0.00,,---,0.00,VWS V14.00,2013-07-23 12:56:00,
2013-07-23 09:02:00,77.2,71.3,28.76,SE,135,0.0,2.9,82,0.00,,---,0.00,VWS V14.00,2013-07-23 13:02:00,
2013-07-23 09:09:00,77.7,71.8,28.76,West,270,0.0,2.9,82,0.00,,---,0.00,VWS V14.00,2013-07-23 13:09:00,
2013-07-23 09:15:00,78.3,72.0,28.76,SW,225,0.0,2.9,81,0.00,,---,0.00,VWS V14.00,2013-07-23 13:15:00,
2013-07-23 09:21:00,78.6,71.9,28.76,WNW,292,2.0,2.9,80,0.00,,---,0.00,VWS V14.00,2013-07-23 13:21:00,
2013-07-23 09:27:00,79.0,71.9,28.76,WNW,292,0.0,2.9,79,0.00,,---,0.00,VWS V14.00,2013-07-23 13:27:00,
2013-07-23 09:33:00,79.5,72.1,28.79,NW,315,0.0,2.9,78,0.00,,---,0.00,VWS V14.00,2013-07-23 13:33:00,
2013-07-23 09:39:00,80.2,72.8,28.79,ENE,68,0.0,2.9,78,0.00,,---,0.00,VWS V14.00,2013-07-23 13:39:00,
2013-07-23 09:45:00,80.6,73.1,28.79,WNW,292,2.5,3.1,78,0.00,,---,0.00,VWS V14.00,2013-07-23 13:45:00,
2013-07-23 09:51:00,81.0,73.1,28.76,West,270,1.3,3.4,77,0.00,,---,0.00,VWS V14.00,2013-07-23 13:51:00,
2013-07-23 09:57:00,81.5,73.2,28.76,SE,135,0.0,3.4,76,0.00,,---,0.00,VWS V14.00,2013-07-23 13:57:00,
2013-07-23 10:03:00,81.9,73.6,28.76,ESE,112,2.2,2.5,76,0.00,,---,0.00,VWS V14.00,2013-07-23 14:03:00,
2013-07-23 10:09:00,82.2,73.9,28.76,South,180,1.6,2.5,76,0.00,,---,0.00,VWS V14.00,2013-07-23 14:09:00,
2013-07-23 10:15:00,82.8,73.6,28.76,East,90,3.1,3.4,74,0.00,,---,0.00,VWS V14.00,2013-07-23 14:15:00,
2013-07-23 10:21:00,82.9,73.8,28.76,NW,315,0.0,3.6,74,0.00,,---,0.00,VWS V14.00,2013-07-23 14:21:00,
2013-07-23 10:27:00,83.5,74.3,28.76,NW,315,1.1,3.6,74,0.00,,---,0.00,VWS V14.00,2013-07-23 14:27:00,
2013-07-23 10:33:00,83.7,74.1,28.76,WNW,292,0.0,3.6,73,0.00,,---,0.00,VWS V14.00,2013-07-23 14:33:00,
2013-07-23 10:39:00,84.0,74.8,28.76,NW,315,0.0,3.6,74,0.00,,---,0.00,VWS V14.00,2013-07-23 14:39:00,
2013-07-23 10:45:00,84.4,74.4,28.76,SW,225,2.0,3.6,72,0.00,,---,0.00,VWS V14.00,2013-07-23 14:45:00,
2013-07-23 10:51:00,84.6,73.7,28.76,East,90,0.0,3.6,70,0.00,,---,0.00,VWS V14.00,2013-07-23 14:51:00,
2013-07-23 10:57:00,84.9,74.5,28.76,North,0,1.3,3.6,71,0.00,,---,0.00,VWS V14.00,2013-07-23 14:57:00,
2013-07-23 11:03:00,85.1,74.2,28.79,East,90,0.9,2.0,70,0.00,,---,0.00,VWS V14.00,2013-07-23 15:03:00,
2013-07-23 11:09:00,85.6,75.2,28.79,West,270,2.5,2.9,71,0.00,,---,0.00,VWS V14.00,2013-07-23 15:09:00,
2013-07-23 11:15:00,85.8,74.9,28.79,West,270,0.0,3.8,70,0.00,,---,0.00,VWS V14.00,2013-07-23 15:15:00,
2013-07-23 11:21:00,86.0,74.7,28.79,South,180,2.7,3.8,69,0.00,,---,0.00,VWS V14.00,2013-07-23 15:21:00,
2013-07-23 11:27:00,86.4,75.0,28.79,East,90,0.0,4.3,69,0.00,,---,0.00,VWS V14.00,2013-07-23 15:27:00,
2013-07-23 11:33:00,86.5,75.2,28.79,East,90,1.3,4.3,69,0.00,,---,0.00,VWS V14.00,2013-07-23 15:33:00,
2013-07-23 11:39:00,86.7,75.3,28.79,North,0,0.9,4.3,69,0.00,,---,0.00,VWS V14.00,2013-07-23 15:39:00,
2013-07-23 11:45:00,86.9,75.5,28.79,WNW,292,0.0,4.3,69,0.00,,---,0.00,VWS V14.00,2013-07-23 15:45:00,
2013-07-23 11:51:00,87.1,75.7,28.79,NNW,338,0.0,4.3,69,0.00,,---,0.00,VWS V14.00,2013-07-23 15:51:00,
2013-07-23 11:57:00,87.6,75.8,28.79,ESE,112,2.0,4.3,68,0.00,,---,0.00,VWS V14.00,2013-07-23 15:57:00,
2013-07-23 12:03:00,87.8,75.9,28.79,WSW,248,0.0,2.5,68,0.00,,---,0.00,VWS V14.00,2013-07-23 16:03:00,
2013-07-23 12:09:00,88.0,76.1,28.79,East,90,0.9,2.9,68,0.00,,---,0.00,VWS V14.00,2013-07-23 16:09:00,
2013-07-23 12:15:00,88.3,76.4,28.79,ENE,68,1.6,2.9,68,0.00,,---,0.00,VWS V14.00,2013-07-23 16:15:00,
2013-07-23 12:21:00,87.8,75.9,28.79,NW,315,2.0,2.9,68,0.00,,---,0.00,VWS V14.00,2013-07-23 16:21:00,
2013-07-23 12:27:00,87.8,75.9,28.79,ESE,112,0.0,3.6,68,0.00,,---,0.00,VWS V14.00,2013-07-23 16:27:00,
2013-07-23 12:33:00,88.2,75.8,28.79,East,90,2.0,3.6,67,0.00,,---,0.00,VWS V14.00,2013-07-23 16:33:00,
2013-07-23 12:39:00,88.3,76.0,28.79,NE,45,1.3,4.3,67,0.00,,---,0.00,VWS V14.00,2013-07-23 16:39:00,
2013-07-23 12:45:00,88.2,75.4,28.79,West,270,1.3,4.3,66,0.00,,---,0.00,VWS V14.00,2013-07-23 16:45:00,
2013-07-23 12:51:00,88.2,75.4,28.79,West,270,2.9,4.3,66,0.00,,---,0.00,VWS V14.00,2013-07-23 16:51:00,
2013-07-23 12:57:00,88.0,75.2,28.79,NE,45,1.1,4.3,66,0.00,,---,0.00,VWS V14.00,2013-07-23 16:57:00,
2013-07-23 13:03:00,88.3,75.6,28.79,North,0,3.8,3.8,66,0.00,,---,0.00,VWS V14.00,2013-07-23 17:03:00,
2013-07-23 13:09:00,88.7,75.9,28.79,NW,315,2.9,3.8,66,0.00,,---,0.00,VWS V14.00,2013-07-23 17:09:00,
2013-07-23 13:15:00,88.9,75.6,28.76,East,90,2.5,4.0,65,0.00,,---,0.00,VWS V14.00,2013-07-23 17:15:00,
2013-07-23 13:21:00,89.1,75.8,28.76,East,90,2.2,4.3,65,0.00,,---,0.00,VWS V14.00,2013-07-23 17:21:00,
2013-07-23 13:27:00,89.2,75.9,28.76,South,180,4.0,4.3,65,0.00,,---,0.00,VWS V14.00,2013-07-23 17:27:00,
2013-07-23 13:33:00,89.4,75.6,28.76,South,180,0.0,4.3,64,0.00,,---,0.00,VWS V14.00,2013-07-23 17:33:00,
2013-07-23 13:39:00,89.6,76.3,28.76,South,180,1.1,4.3,65,0.00,,---,0.00,VWS V14.00,2013-07-23 17:39:00,
2013-07-23 13:45:00,89.6,76.3,28.76,East,90,2.0,4.3,65,0.00,,---,0.00,VWS V14.00,2013-07-23 17:45:00,
2013-07-23 13:51:00,89.8,76.0,28.73,ESE,112,1.1,4.3,64,0.00,,---,0.00,VWS V14.00,2013-07-23 17:51:00,
2013-07-23 13:58:00,89.8,76.4,28.73,NNE,22,2.5,5.8,65,0.00,,---,0.00,VWS V14.00,2013-07-23 17:58:00,
2013-07-23 14:04:00,89.8,76.4,28.73,SE,135,2.0,2.9,65,0.00,,---,0.00,VWS V14.00,2013-07-23 18:04:00,
2013-07-23 14:10:00,89.8,76.4,28.73,SE,135,2.0,3.6,65,0.00,,---,0.00,VWS V14.00,2013-07-23 18:10:00,
2013-07-23 14:16:00,89.6,75.8,28.73,ENE,68,3.4,6.0,64,0.00,,---,0.00,VWS V14.00,2013-07-23 18:16:00,
2013-07-23 14:22:00,89.8,76.4,28.73,NE,45,0.9,6.0,65,0.00,,---,0.00,VWS V14.00,2013-07-23 18:22:00,
2013-07-23 14:28:00,89.8,76.4,28.73,NE,45,3.1,6.0,65,0.00,,---,0.00,VWS V14.00,2013-07-23 18:28:00,
2013-07-23 14:34:00,89.8,76.4,28.73,WNW,292,2.0,6.0,65,0.00,,---,0.00,VWS V14.00,2013-07-23 18:34:00,
2013-07-23 14:40:00,89.6,76.3,28.73,ENE,68,2.9,6.0,65,0.00,,---,0.00,VWS V14.00,2013-07-23 18:40:00,
2013-07-23 14:46:00,89.8,76.4,28.73,NNW,338,1.6,6.0,65,0.00,,---,0.00,VWS V14.00,2013-07-23 18:46:00,
2013-07-23 14:52:00,89.6,76.3,28.73,South,180,3.8,6.0,65,0.00,,---,0.00,VWS V14.00,2013-07-23 18:52:00,
2013-07-23 15:00:00,90.0,76.6,28.73,NE,45,1.6,6.0,65,0.00,,---,0.00,VWS V14.00,2013-07-23 19:00:00,
2013-07-23 15:07:00,90.0,76.6,28.70,NW,315,2.2,3.8,65,0.00,,---,0.00,VWS V14.00,2013-07-23 19:07:00,
2013-07-23 15:14:00,89.8,76.4,28.70,East,90,2.0,3.8,65,0.00,,---,0.00,VWS V14.00,2013-07-23 19:14:00,
2013-07-23 15:23:00,89.8,76.9,28.70,NW,315,2.2,3.8,66,0.00,,---,0.00,VWS V14.00,2013-07-23 19:23:00,
2013-07-23 15:29:00,89.8,76.9,28.70,East,90,2.0,3.8,66,0.00,,---,0.00,VWS V14.00,2013-07-23 19:29:00,
2013-07-23 15:35:00,90.0,77.1,28.70,WSW,248,3.1,4.9,66,0.00,,---,0.00,VWS V14.00,2013-07-23 19:35:00,
2013-07-23 15:41:00,89.2,76.4,28.70,SSE,158,0.0,4.9,66,0.00,,---,0.00,VWS V14.00,2013-07-23 19:41:00,
2013-07-23 15:47:00,89.2,76.4,28.70,East,90,1.3,4.9,66,0.00,,---,0.00,VWS V14.00,2013-07-23 19:47:00,
2013-07-23 15:53:00,89.1,76.2,28.70,NNW,338,5.6,5.6,66,0.00,,---,0.00,VWS V14.00,2013-07-23 19:53:00,
2013-07-23 15:59:00,88.3,75.6,28.70,West,270,2.9,5.6,66,0.00,,---,0.00,VWS V14.00,2013-07-23 19:59:00,
2013-07-23 16:08:00,88.3,76.0,28.70,South,180,3.1,3.1,67,0.00,,---,0.00,VWS V14.00,2013-07-23 20:08:00,
2013-07-23 16:14:00,88.2,75.8,28.70,SE,135,0.9,3.6,67,0.00,,---,0.00,VWS V14.00,2013-07-23 20:14:00,
2013-07-23 16:20:00,87.8,75.5,28.70,NE,45,2.5,3.6,67,0.00,,---,0.00,VWS V14.00,2013-07-23 20:20:00,
2013-07-23 16:26:00,87.6,75.3,28.70,ESE,112,0.9,3.8,67,0.00,,---,0.00,VWS V14.00,2013-07-23 20:26:00,
2013-07-23 16:33:00,87.4,76.0,28.67,West,270,0.0,4.0,69,0.00,,---,0.00,VWS V14.00,2013-07-23 20:33:00,
2013-07-23 16:45:00,87.1,75.7,28.67,SW,225,0.0,4.0,69,0.00,,---,0.00,VWS V14.00,2013-07-23 20:45:00,
2013-07-23 16:51:00,86.9,75.5,28.67,NW,315,0.0,4.0,69,0.00,,---,0.00,VWS V14.00,2013-07-23 20:51:00,
2013-07-23 16:57:00,86.5,75.2,28.67,NE,45,0.0,4.0,69,0.00,,---,0.00,VWS V14.00,2013-07-23 20:57:00,
2013-07-23 17:03:00,86.4,75.0,28.67,SW,225,0.0,1.6,69,0.00,,---,0.00,VWS V14.00,2013-07-23 21:03:00,
2013-07-23 17:09:00,86.4,75.4,28.67,NW,315,1.3,1.6,70,0.00,,---,0.00,VWS V14.00,2013-07-23 21:09:00,
2013-07-23 17:15:00,86.2,75.2,28.67,NW,315,1.3,2.5,70,0.00,,---,0.00,VWS V14.00,2013-07-23 21:15:00,
2013-07-23 17:22:00,85.8,75.3,28.67,WNW,292,4.9,4.9,71,0.00,,---,0.00,VWS V14.00,2013-07-23 21:22:00,
2013-07-23 17:28:00,85.8,74.9,28.67,NE,45,3.1,4.9,70,0.00,,---,0.00,VWS V14.00,2013-07-23 21:28:00,
2013-07-23 17:34:00,85.5,75.0,28.67,NNW,338,1.6,4.9,71,0.00,,---,0.00,VWS V14.00,2013-07-23 21:34:00,
2013-07-23 17:40:00,85.3,74.8,28.67,NE,45,0.0,4.9,71,0.00,,---,0.00,VWS V14.00,2013-07-23 21:40:00,
2013-07-23 17:46:00,85.3,74.8,28.67,SE,135,2.0,4.9,71,0.00,,---,0.00,VWS V14.00,2013-07-23 21:46:00,
2013-07-23 17:52:00,85.1,74.6,28.67,SSE,158,0.0,4.9,71,0.00,,---,0.00,VWS V14.00,2013-07-23 21:52:00,
2013-07-23 18:00:00,85.3,75.2,28.67,West,270,2.2,4.9,72,0.00,,---,0.00,VWS V14.00,2013-07-23 22:00:00,
2013-07-23 18:07:00,85.3,75.2,28.67,ESE,112,0.0,2.2,72,0.00,,---,0.00,VWS V14.00,2013-07-23 22:07:00,
2013-07-23 18:16:00,85.1,75.1,28.67,NE,45,0.0,2.7,72,0.00,,---,0.00,VWS V14.00,2013-07-23 22:16:00,
2013-07-23 18:22:00,85.1,75.1,28.67,West,270,0.0,2.7,72,0.00,,---,0.00,VWS V14.00,2013-07-23 22:22:00,
2013-07-23 18:32:00,85.3,75.7,28.67,South,180,0.0,2.7,73,0.00,,---,0.00,VWS V14.00,2013-07-23 22:32:00,
2013-07-23 18:38:00,85.3,75.2,28.67,East,90,0.0,2.7,72,0.00,,---,0.00,VWS V14.00,2013-07-23 22:38:00,
2013-07-23 18:44:00,85.3,75.2,28.67,West,270,0.0,2.7,72,0.00,,---,0.00,VWS V14.00,2013-07-23 22:44:00,
2013-07-23 18:50:00,85.3,74.8,28.67,SW,225,0.0,2.7,71,0.00,,---,0.00,VWS V14.00,2013-07-23 22:50:00,
2013-07-23 18:56:00,85.1,74.6,28.67,WSW,248,2.0,3.8,71,0.00,,---,0.00,VWS V14.00,2013-07-23 22:56:00,
2013-07-23 19:05:00,84.7,73.4,28.67,West,270,0.0,2.7,69,0.00,,---,0.00,VWS V14.00,2013-07-23 23:05:00,
2013-07-23 19:11:00,84.4,73.1,28.67,SW,225,0.0,2.7,69,0.00,,---,0.00,VWS V14.00,2013-07-23 23:11:00,
2013-07-23 19:20:00,84.0,73.2,28.67,West,270,0.0,2.7,70,0.00,,---,0.00,VWS V14.00,2013-07-23 23:20:00,
2013-07-23 19:27:00,83.7,72.8,28.67,NW,315,0.0,2.7,70,0.00,,---,0.00,VWS V14.00,2013-07-23 23:27:00,
2013-07-23 19:33:00,83.3,72.5,28.67,NNW,338,0.0,2.7,70,0.00,,---,0.00,VWS V14.00,2013-07-23 23:33:00,
2013-07-23 19:42:00,82.9,72.2,28.67,NNE,22,0.0,2.7,70,0.00,,---,0.00,VWS V14.00,2013-07-23 23:42:00,
2013-07-23 19:48:00,82.8,72.0,28.67,West,270,0.0,2.7,70,0.00,,---,0.00,VWS V14.00,2013-07-23 23:48:00,
2013-07-23 19:54:00,82.4,71.6,28.67,WNW,292,0.0,2.7,70,0.00,,---,0.00,VWS V14.00,2013-07-23 23:54:00,
2013-07-23 20:00:00,82.0,71.3,28.67,WNW,292,0.0,0.0,70,0.00,,---,0.00,VWS V14.00,2013-07-24 00:00:00,
2013-07-23 20:06:00,81.7,70.9,28.67,WNW,292,0.0,0.0,70,0.00,,---,0.00,VWS V14.00,2013-07-24 00:06:00,
2013-07-23 20:15:00,81.0,71.1,28.67,West,270,0.0,0.0,72,0.00,,---,0.00,VWS V14.00,2013-07-24 00:15:00,
2013-07-23 20:24:00,80.6,71.2,28.67,NNW,338,0.0,0.0,73,0.00,,---,0.00,VWS V14.00,2013-07-24 00:24:00,
2013-07-23 20:34:00,80.4,71.8,28.70,WNW,292,0.0,0.0,75,0.00,,---,0.00,VWS V14.00,2013-07-24 00:34:00,
2013-07-23 20:43:00,79.5,70.9,28.70,West,270,0.0,0.0,75,0.00,,---,0.00,VWS V14.00,2013-07-24 00:43:00,
2013-07-23 20:49:00,79.5,71.3,28.70,West,270,0.0,0.0,76,0.00,,---,0.00,VWS V14.00,2013-07-24 00:49:00,
2013-07-23 20:55:00,79.5,71.3,28.70,West,270,0.0,0.0,76,0.00,,---,0.00,VWS V14.00,2013-07-24 00:55:00,
2013-07-23 21:01:00,78.8,70.6,28.70,West,270,0.0,0.0,76,0.00,,---,0.00,VWS V14.00,2013-07-24 01:01:00,
2013-07-23 21:07:00,78.6,70.4,28.70,West,270,0.0,0.0,76,0.00,,---,0.00,VWS V14.00,2013-07-24 01:07:00,
2013-07-23 21:13:00,78.4,70.2,28.70,West,270,0.0,0.0,76,0.00,,---,0.00,VWS V14.00,2013-07-24 01:13:00,
2013-07-23 21:19:00,78.3,70.1,28.70,South,180,0.0,0.0,76,0.00,,---,0.00,VWS V14.00,2013-07-24 01:19:00,
2013-07-23 21:28:00,78.1,69.9,28.70,South,180,0.0,0.0,76,0.00,,---,0.00,VWS V14.00,2013-07-24 01:28:00,
2013-07-23 21:38:00,77.9,70.1,28.70,South,180,0.0,0.0,77,0.00,,---,0.00,VWS V14.00,2013-07-24 01:38:00,
2013-07-23 21:44:00,77.5,69.8,28.70,SSW,202,0.0,0.0,77,0.00,,---,0.00,VWS V14.00,2013-07-24 01:44:00,
2013-07-23 21:50:00,77.5,69.8,28.70,West,270,0.0,0.0,77,0.00,,---,0.00,VWS V14.00,2013-07-24 01:50:00,
2013-07-23 21:56:00,77.2,69.4,28.70,West,270,0.0,0.0,77,0.00,,---,0.00,VWS V14.00,2013-07-24 01:56:00,
2013-07-23 22:05:00,77.2,69.4,28.70,West,270,0.0,0.0,77,0.00,,---,0.00,VWS V14.00,2013-07-24 02:05:00,
2013-07-23 22:11:00,77.0,69.2,28.70,West,270,0.0,0.0,77,0.00,,---,0.00,VWS V14.00,2013-07-24 02:11:00,
2013-07-23 22:17:00,76.6,69.3,28.70,West,270,0.0,0.0,78,0.00,,---,0.00,VWS V14.00,2013-07-24 02:17:00,
2013-07-23 22:23:00,76.6,69.3,28.70,WNW,292,0.0,0.0,78,0.00,,---,0.00,VWS V14.00,2013-07-24 02:23:00,
2013-07-23 22:29:00,76.3,68.9,28.70,West,270,0.0,0.0,78,0.00,,---,0.00,VWS V14.00,2013-07-24 02:29:00,
2013-07-23 22:38:00,76.1,68.8,28.70,West,270,0.0,0.0,78,0.00,,---,0.00,VWS V14.00,2013-07-24 02:38:00,
2013-07-23 22:44:00,75.7,68.4,28.70,SW,225,0.0,0.0,78,0.00,,---,0.00,VWS V14.00,2013-07-24 02:44:00,
2013-07-23 22:51:00,75.6,68.6,28.70,West,270,0.0,0.0,79,0.00,,---,0.00,VWS V14.00,2013-07-24 02:51:00,
2013-07-23 22:57:00,75.6,68.6,28.70,West,270,0.0,0.0,79,0.00,,---,0.00,VWS V14.00,2013-07-24 02:57:00,
2013-07-23 23:06:00,75.4,68.4,28.70,West,270,0.0,0.0,79,0.00,,---,0.00,VWS V14.00,2013-07-24 03:06:00,
2013-07-23 23:12:00,75.0,68.4,28.70,West,270,0.0,0.0,80,0.00,,---,0.00,VWS V14.00,2013-07-24 03:12:00,
2013-07-23 23:18:00,75.2,68.6,28.70,West,270,0.0,0.0,80,0.00,,---,0.00,VWS V14.00,2013-07-24 03:18:00,
2013-07-23 23:24:00,75.0,68.4,28.70,West,270,0.0,0.0,80,0.00,,---,0.00,VWS V14.00,2013-07-24 03:24:00,
2013-07-23 23:33:00,74.8,68.3,28.70,West,270,0.0,0.0,80,0.00,,---,0.00,VWS V14.00,2013-07-24 03:33:00,
2013-07-23 23:42:00,74.7,68.1,28.70,West,270,0.0,0.0,80,0.00,,---,0.00,VWS V14.00,2013-07-24 03:42:00,
2013-07-23 23:48:00,74.8,68.3,28.70,West,270,0.0,0.0,80,0.00,,---,0.00,VWS V14.00,2013-07-24 03:48:00,
2013-07-23 23:54:00,74.7,68.1,28.70,West,270,0.0,0.0,80,0.00,,---,0.00,VWS V14.00,2013-07-24 03:54:00,